ラッセル第3彗星

91P/Russell 3 (2013)

English version
Home page
Updated on January 22, 2012

---------------------------------------------------------------------

・ プロフィール

・ 軌道要素

The following orbital elements are taken from MPC 69909:

Epoch 2013 Mar. 9.0 TT = JDT 2456360.5
T 2013 Mar. 1.1718 TT                                   MPC
q   2.616812             (2000.0)            P               Q
n   0.1279636      Peri.  354.6471      -0.4588729      +0.8594652
a   3.900124       Node   247.8711      -0.8058938      -0.5093757
e   0.329044       Incl.   14.0757      -0.3741268      +0.0430801
P   7.70
From 227 observations 1989-2006, mean residual 0".8.  Nongravitational
     parameters A1 = +1.11, A2 = +0.2477.

・ 星図

・ 光度変化

        m1 = 7.5 + 5 logΔ + 20.0 log r

---------------------------------------------------------------------

軌道要素はMPCのEphemerides and Orbital Elementsに掲載されたものです。
星図はステラナビゲータ Ver.8 (アストロアーツ) で作成したものです。
光度グラフはComet for Windowsで作成したものです。

---------------------------------------------------------------------

Copyright(C) Seiichi Yoshida (comet@aerith.net). All rights reserved.